Location: Dal�� Lhota
(48.7500°N, 14.0167°E)
Time: 23:02:13
(UTC+00:00)

Resurs 01 Rocket - Pass Details

Date: 24 September 2020
Orbit: 633 x 645 km, 98.0° (Epoch: 25 October)

Event Time Altitude Azimuth Distance (km) Brightness Sun altitude
Exits shadow 20:03:26 44° 290° (WNW) 896 2.7 -29.6°
Drops below altitude 10° 20:07:04 10° 336° (NNW) 2,050 4.9 -30.0°
Sets 20:09:21 0° 342° (NNW) 2,963 5.9 -30.3°
